カタログに戻る

STARLINK-37536

運用中通信VLEO
NORAD 69508·PAYLOAD·🇺🇸 United States

打ち上げ Jun 12, 2026 から Cape Canaveral Space Force Station

Loading…

次のパス (今後24時間)

TLE

最新Source: CelesTrak SupGP

元期: Sep 15, 2026, 03:15 UTC

1 69508C 26133A   26258.13590278 -.00039863  00000+0 -11776-2 0  2583
2 69508  53.1575 255.1218 0001297  90.3157   0.7338 15.34414177    13

AllMySatでSTARLINK-37536をリアルタイム追跡

Download on the App Store